User: anonymous   Login
Location: Unspecified
(0.0000°N, 0.0000°E)
Time: 07:15:51
(UTC+00:00)
Language:

APRIZESAT 5 - Orbit

View from above orbital plane
View from above orbital plane
View from above satellite
View from above satellite

Ground track
Ground track

The orbit data is extracted from the following two-line orbital elements,

1 37792U 11044E   17178.82341264 +.00000040 +00000-0 +14100-4 0  9996
2 37792 098.3388 322.2165 0058784 018.5278 341.8052 14.75135479315438
Epoch (UTC): 27 June 2017 19:45:42
Eccentricity: 0.0058784
inclination: 98.3388°
perigee height: 603 km
apogee height: 686 km
right ascension of ascending node: 322.2165°
argument of perigee: 18.5278°
revolutions per day: 14.75135479
mean anomaly at epoch: 341.8052°
orbit number at epoch: 31543

The dashed part of the orbit path shows where the satellite is in the earth's shadow,  

DLR